SCP
1 1 1 0 0 0 0 0 0 0 0 0 0 0 0 0 0 0 0 0 0 0 0 0 0 0 0 0 1 1 1 0 0 0 0 0 0 0 0 0 0 0 0
3 1 1 1 0 0 0 0 0 0 0 0 0 0 0 0 0 0 0 0 0 0 0 0 0 0 1 1 1 1 1 0 0 0 0 0 0 0 0 0 0 0 0
6 3 1 1 1 1 1 0 0 0 0 0 0 0 1 1 1 1 1 0 0 1 1 0 0 0 0 1 1 1 0 0 0 0 0 0 0 0 0 0 0 0 0
5 5 1 1 1 1 1 0 0 0 0 0 1 1 1 1 1 1 1 1 1 0 1 1 0 0 0 1 1 1 1 0 0 0 0 0 0 0 0 0 0 0 0
2 4 4 4 5 4 2 1 1 1 1 1 1 1 1 1 1 1 1 1 2 1 1 1 1 0 0 1 1 1 1 1 0 0 0 0 0 0 0 0 0 0 0
4 6 6 8 7 3 2 2 3 2 2 2 1 1 2 1 1 1 1 1 1 2 2 1 1 1 0 1 1 1 1 1 1 1 1 0 0 0 0 0 0 0 0
4 7 5 5 6 6 4 6 4 5 4 5 3 4 2 3 3 1 1 2 3 2 3 2 2 2 1 1 1 0 1 1 1 1 1 0 0 0 0 0 0 0 0
4 5 6 4 6 5 6 8 8 5 3 4 3 2 4 3 2 2 4 4 6 6 4 3 3 2 3 1 0 -0 0 1 1 1 1 1 1 0 0 0 0 0 0
4 5 5 4 6 5 3 7 7 6 3 4 4 3 1 1 1 2 4 5 11 9 7 13 6 5 5 3 1 1 0 1 1 1 1 1 1 1 1 0 0 0 0
4 4 5 5 7 4 3 7 5 4 6 5 2 2 3 3 1 1 1 2 0 0 0 2 1 2 1 1 1 0 1 1 1 1 1 1 1 1 1 0 0 0 0
6 3 4 5 7 5 5 5 6 5 3 2 1 3 2 1 1 1 0 0 0 0 0 0 0 2 1 1 1 1 1 1 1 1 0 1 1 1 1 1 0 0 0
8 4 3 6 8 6 6 5 6 7 5 4 2 3 2 1 1 1 0 0 0 0 0 -0 0 0 0 1 0 -0 0 1 1 1 0 1 1 1 1 1 0 0 0
8 9 4 8 10 9 8 6 8 6 5 4 8 2 2 1 1 1 0 0 0 0 0 0 0 0 1 2 2 1 1 1 0 0 0 0 0 0 1 0 0 0 0
6 5 8 6 7 8 7 8 5 4 5 5 5 5 3 2 2 1 1 1 0 0 0 0 0 0 1 2 2 1 1 0 0 0 0 0 0 0 0 0 0 0 0
7 9 12 12 6 7 8 8 6 6 6 5 5 6 4 3 2 2 2 1 1 0 0 0 0 1 1 3 1 1 1 0 0 0 0 0 0 0 0 0 0 0 0
6 12 9 3 7 8 7 11 7 5 6 5 4 6 5 3 2 2 2 2 2 2 1 1 0 0 1 2 1 1 0 0 0 0 0 0 0 0 0 0 0 0 0
4 7 1 6 5 5 7 11 7 4 3 4 5 5 3 4 3 2 1 1 1 1 1 1 0 0 2 2 1 1 0 0 1 0 0 -0 0 0 0 0 0 0 0
3 2 2 1 2 3 3 4 3 2 1 3 3 2 2 2 3 2 1 2 1 1 1 1 0 0 0 0 1 1 1 0 0 0 0 0 0 0 0 0 0 0 0
2 1 1 1 2 3 3 2 1 1 2 1 2 1 0 1 1 0 1 1 0 0 0 0 0 0 0 0 0 1 1 0 0 0 0 0 0 0 0 0 0 0 0
2 1 1 1 1 1 0 1 1 2 2 1 1 1 0 0 0 1 0 0 0 0 0 0 0 0 0 0 0 1 0 0 0 0 0 0 0 0 0 0 0 0 0
2 2 1 1 1 1 0 1 1 1 2 2 2 0 1 0 0 0 0 0 0 0 0 0 0 0 0 0 0 0 0 0 0 0 0 0 0 0 0 0 0 0 0
1 1 1 2 3 0 0 0 1 1 1 1 1 1 0 0 0 0 0 0 0 0 0 0 0 0 0 0 0 0 0 0 0 0 0 0 1 0 0 0 0 0 0
0 1 1 1 2 2 0 0 0 2 1 1 1 1 1 0 0 0 0 0 0 0 0 0 0 0 0 0 0 0 0 0 0 0 0 0 1 1 0 0 0 0 0
0 0 0 1 2 2 0 0 0 1 2 2 2 1 1 1 1 0 0 0 0 0 0 0 0 0 0 0 0 0 0 0 0 0 0 1 0 0 0 0 0 0 0
0 0 0 1 1 1 1 0 0 1 1 1 2 1 1 1 1 0 0 0 0 0 0 0 0 0 -0 0 0 0 0 0 0 0 0 0 0 0 0 0 0 0 0
0 0 0 0 0 0 0 0 0 1 1 2 2 1 0 1 1 0 1 0 0 0 0 0 0 0 -0 0 0 0 0 0 0 0 0 0 0 0 0 0 0 0 0
Wind_Speed_500mb
38 33 30 29 25 20 20 17 18 17 17 16 16 18 19 21 22 22 23 32 37 36 34 32 28 26 23 22 23 29 27 22 21 22 23 21 21 21 26 26 27 27 25
43 34 35 31 29 28 24 22 20 20 18 19 21 21 21 22 24 26 26 29 37 42 35 35 31 30 27 23 20 24 26 26 23 24 26 24 24 22 24 28 29 30 29
53 46 35 34 30 30 33 33 35 34 25 19 20 22 22 23 25 26 31 32 29 37 39 34 33 33 32 26 23 22 25 28 25 26 27 25 24 22 22 26 30 32 32
58 55 40 41 39 38 37 32 30 27 26 25 24 27 25 25 26 28 26 34 34 27 38 36 27 32 33 31 26 23 26 29 27 27 29 29 26 23 22 26 29 32 34
59 54 53 64 61 51 51 43 41 37 32 30 28 26 27 24 25 26 28 37 40 39 37 34 33 29 27 31 27 24 24 30 30 29 28 31 30 28 27 28 31 32 35
68 67 69 58 58 52 44 38 39 36 32 32 29 30 32 27 22 23 34 34 31 35 29 38 35 21 18 23 25 23 25 30 35 35 33 33 32 31 32 32 33 37 36
71 74 76 59 63 55 45 44 53 48 38 37 35 34 27 29 22 22 22 28 25 29 24 31 31 19 19 25 17 12 21 30 36 38 37 36 37 34 33 34 35 37 38
77 78 79 65 57 55 65 57 63 51 42 41 36 33 39 38 30 23 16 16 21 18 21 28 19 29 18 27 21 6 16 26 33 32 40 39 39 40 34 34 34 35 38
73 68 70 68 57 56 47 47 57 55 45 40 45 30 21 36 30 37 38 27 24 18 32 32 22 16 12 22 28 25 17 24 29 27 36 42 42 44 37 35 32 33 35
72 70 73 76 79 58 52 55 52 45 53 47 38 49 57 53 36 39 61 61 66 71 72 30 34 45 42 38 44 46 34 21 28 36 36 44 45 47 43 38 34 31 33
65 63 68 68 71 70 54 56 52 57 52 53 48 36 33 42 46 48 42 67 59 51 81 76 37 38 44 46 37 39 39 46 43 36 45 51 49 51 46 42 38 31 31
57 65 67 73 71 66 61 53 60 66 75 51 44 41 34 28 44 51 56 75 61 64 83 90 84 77 67 62 54 42 39 54 48 38 35 47 51 54 52 46 43 35 29
70 73 63 70 67 73 64 65 58 63 58 57 57 50 43 41 35 35 45 57 70 67 54 56 69 75 74 71 65 44 54 53 45 42 35 40 54 56 53 48 45 39 32
88 22 67 71 66 55 61 62 58 54 48 53 54 50 41 40 37 40 43 43 55 59 56 62 46 51 59 62 53 47 49 57 59 53 44 53 58 61 56 51 44 42 36
67 69 70 82 58 56 55 50 50 51 55 52 48 48 43 40 39 41 38 44 51 55 57 53 48 43 48 51 55 46 52 53 58 64 59 60 58 60 56 53 48 46 38
77 55 79 50 43 52 49 51 46 45 48 43 40 45 44 39 42 42 43 41 46 50 59 56 55 50 46 48 46 54 45 42 42 50 54 58 60 59 54 54 52 51 40
71 72 36 43 51 47 46 48 46 43 43 42 42 39 42 39 37 38 41 43 48 47 50 48 45 45 43 51 56 69 55 50 48 39 46 58 53 54 56 56 55 51 43
41 44 50 47 44 43 39 40 39 36 42 40 41 40 42 38 41 44 44 39 39 40 38 43 43 50 52 55 60 60 56 44 45 45 47 45 50 53 53 54 59 50 45
34 41 42 43 44 44 40 43 36 37 38 34 42 37 35 35 35 31 25 26 25 27 30 34 43 45 50 48 48 49 54 47 48 40 45 46 50 52 54 57 58 50 44
32 33 34 33 31 36 40 47 38 38 35 43 40 33 32 30 29 27 23 22 22 24 26 32 38 42 43 42 45 47 39 41 42 45 45 47 46 46 51 56 55 50 43
30 34 43 38 37 40 40 40 35 35 40 44 40 37 35 31 32 31 23 21 27 28 29 33 39 41 43 38 35 34 39 40 41 44 46 48 48 43 44 48 52 48 44
25 29 33 40 37 47 44 38 54 51 54 50 47 46 39 36 39 38 37 30 30 34 40 37 38 42 49 48 44 42 45 38 40 46 39 41 40 34 33 41 52 47 47
43 37 34 35 43 54 55 56 61 65 61 63 62 55 47 40 41 34 33 33 35 31 35 41 48 48 48 42 44 51 53 49 49 46 40 36 40 40 35 36 41 42 38
69 74 57 53 47 52 68 72 70 74 75 67 65 63 60 54 47 42 36 34 34 34 37 40 45 52 48 48 46 46 48 58 60 54 42 39 39 38 34 41 44 43 44
60 63 61 66 79 69 63 71 79 77 80 77 69 68 68 67 60 56 58 54 48 47 37 40 44 50 46 49 46 47 57 64 62 47 44 44 40 32 29 37 38 36 36
58 64 68 70 77 79 70 87 77 82 82 77 78 79 78 75 66 64 65 62 58 53 39 40 43 55 48 53 47 48 52 52 49 32 39 40 36 29 23 36 32 31 32
Wind_Direction_500mb
211 212 208 203 217 217 225 231 243 252 252 265 271 273 273 269 271 280 277 286 299 300 292 284 286 289 290 282 273 266 265 261 259 265 270 276 276 275 274 263 258 254 248
214 213 212 216 215 218 223 228 241 242 247 248 262 269 267 267 272 274 278 276 287 295 298 287 279 280 280 280 273 268 260 262 269 270 268 278 277 271 276 270 261 257 249
208 210 214 218 219 224 230 240 251 262 261 258 263 266 268 268 272 271 279 281 273 284 292 297 281 273 275 275 272 263 259 256 264 275 272 276 279 274 275 272 266 260 254
213 229 219 237 236 237 252 248 243 237 243 248 247 250 258 264 269 273 278 282 274 258 277 284 285 277 272 273 274 274 265 261 262 270 275 275 277 274 273 276 273 264 259
223 231 238 248 248 241 247 253 248 247 230 236 247 255 264 263 276 282 282 267 266 257 244 264 267 269 268 269 271 272 274 267 262 264 274 275 275 275 278 275 274 272 262
223 229 235 221 231 230 235 223 223 230 227 221 231 241 243 253 261 295 301 285 262 254 248 255 257 248 268 279 270 270 275 272 271 272 276 276 272 271 276 279 275 271 265
224 228 230 230 235 229 219 239 236 244 237 236 240 249 252 248 251 272 294 276 248 255 236 250 236 242 256 263 258 279 289 280 273 273 274 280 275 269 270 275 276 272 265
233 226 232 227 231 229 242 234 240 236 244 232 228 249 244 253 262 267 276 261 228 212 239 227 234 248 226 255 262 264 280 286 276 275 273 276 277 268 268 268 275 271 265
228 234 232 232 228 242 237 235 236 238 235 232 233 230 258 260 260 246 236 228 231 212 237 191 222 239 252 260 258 287 299 287 277 272 274 269 272 267 262 263 269 272 267
236 230 235 225 230 227 227 236 237 228 229 231 250 256 251 250 257 272 263 260 254 253 263 253 250 256 267 267 278 283 272 280 295 274 275 266 267 266 260 260 263 272 267
249 236 226 225 228 231 232 223 236 247 237 249 245 241 246 261 254 250 266 267 245 232 284 297 300 279 285 292 287 263 272 279 278 295 312 272 260 261 259 258 256 267 270
237 247 225 228 228 231 225 227 234 239 257 242 245 236 235 238 244 251 264 272 268 272 268 275 291 290 298 284 287 285 252 261 269 270 285 288 257 256 258 254 253 262 270
227 228 233 223 223 232 228 238 235 241 247 249 244 246 243 244 249 261 258 265 269 277 281 278 292 283 268 263 270 266 254 264 268 262 266 277 260 253 260 249 252 260 269
237 256 237 235 223 222 235 232 238 241 242 248 250 248 243 245 249 248 253 259 272 272 277 281 295 270 273 265 269 262 256 265 263 252 258 257 258 249 256 249 249 258 266
237 237 228 228 219 217 219 231 233 236 240 242 247 250 248 249 246 250 252 257 258 265 271 275 276 277 278 264 277 274 269 280 277 253 247 246 244 244 250 252 247 252 260
232 229 210 244 214 216 214 216 223 234 233 239 243 250 251 246 249 245 259 259 261 263 266 271 276 265 284 272 261 279 280 278 288 270 250 250 237 241 247 251 246 249 257
230 223 218 205 212 211 211 208 218 221 240 240 245 247 250 249 244 247 249 249 253 257 257 267 273 277 282 276 276 284 273 266 291 283 261 254 243 237 249 243 244 246 253
225 229 220 215 211 210 211 213 219 224 232 240 242 245 245 247 250 249 246 252 258 262 278 282 280 283 278 276 282 279 285 262 271 295 290 259 245 254 245 242 240 243 251
218 212 215 212 208 204 207 240 218 217 213 233 242 234 236 235 239 238 248 243 252 265 267 274 280 280 278 278 281 277 280 275 273 289 292 255 248 244 232 235 236 240 249
223 219 212 212 208 207 209 214 221 214 210 216 222 217 223 224 228 234 240 246 261 276 276 279 281 284 285 287 283 272 278 274 279 283 282 271 249 244 241 229 232 239 249
252 240 226 226 219 217 212 208 217 204 211 207 209 216 218 218 224 225 228 244 249 267 278 280 282 285 287 292 295 293 283 282 280 279 285 274 256 249 243 231 234 239 251
282 269 254 247 236 231 227 217 215 213 210 212 212 218 222 237 242 246 252 260 270 277 282 280 283 283 281 282 286 283 292 284 282 279 285 255 251 244 252 246 244 247 252
268 267 263 253 248 249 241 237 226 218 218 217 217 216 223 232 246 247 260 276 286 290 292 294 289 288 286 284 278 278 275 283 275 273 280 248 232 234 227 234 259 261 256
257 263 268 269 257 254 241 235 234 228 224 223 223 224 225 228 232 241 239 251 263 270 279 286 288 291 285 279 272 270 269 269 270 269 259 241 249 248 241 241 243 257 259
246 243 247 258 253 252 249 240 238 234 233 229 229 231 232 240 237 236 240 252 266 275 281 292 298 297 298 290 286 276 275 276 273 260 239 246 241 228 225 235 256 257 266
245 239 236 240 247 243 246 248 242 239 238 233 232 233 237 234 240 241 243 255 263 273 278 283 283 291 290 290 286 270 274 270 257 249 247 224 227 210 213 230 246 255 268
Wind_Speed_850mb
38 33 30 29 25 20 20 17 18 17 17 16 16 18 19 21 22 22 23 32 37 36 34 32 28 26 23 22 23 29 27 22 21 22 23 21 21 21 26 26 27 27 25
43 34 35 31 29 28 24 22 20 20 18 19 21 21 21 22 24 26 26 29 37 42 35 35 31 30 27 23 20 24 26 26 23 24 26 24 24 22 24 28 29 30 29
53 46 35 34 30 30 33 33 35 34 25 19 20 22 22 23 25 26 31 32 29 37 39 34 33 33 32 26 23 22 25 28 25 26 27 25 24 22 22 26 30 32 32
58 55 40 41 39 38 37 32 30 27 26 25 24 27 25 25 26 28 26 34 34 27 38 36 27 32 33 31 26 23 26 29 27 27 29 29 26 23 22 26 29 32 34
59 54 53 64 61 51 51 43 41 37 32 30 28 26 27 24 25 26 28 37 40 39 37 34 33 29 27 31 27 24 24 30 30 29 28 31 30 28 27 28 31 32 35
68 67 69 58 58 52 44 38 39 36 32 32 29 30 32 27 22 23 34 34 31 35 29 38 35 21 18 23 25 23 25 30 35 35 33 33 32 31 32 32 33 37 36
71 74 76 59 63 55 45 44 53 48 38 37 35 34 27 29 22 22 22 28 25 29 24 31 31 19 19 25 17 12 21 30 36 38 37 36 37 34 33 34 35 37 38
77 78 79 65 57 55 65 57 63 51 42 41 36 33 39 38 30 23 16 16 21 18 21 28 19 29 18 27 21 6 16 26 33 32 40 39 39 40 34 34 34 35 38
73 68 70 68 57 56 47 47 57 55 45 40 45 30 21 36 30 37 38 27 24 18 32 32 22 16 12 22 28 25 17 24 29 27 36 42 42 44 37 35 32 33 35
72 70 73 76 79 58 52 55 52 45 53 47 38 49 57 53 36 39 61 61 66 71 72 30 34 45 42 38 44 46 34 21 28 36 36 44 45 47 43 38 34 31 33
65 63 68 68 71 70 54 56 52 57 52 53 48 36 33 42 46 48 42 67 59 51 81 76 37 38 44 46 37 39 39 46 43 36 45 51 49 51 46 42 38 31 31
57 65 67 73 71 66 61 53 60 66 75 51 44 41 34 28 44 51 56 75 61 64 83 90 84 77 67 62 54 42 39 54 48 38 35 47 51 54 52 46 43 35 29
70 73 63 70 67 73 64 65 58 63 58 57 57 50 43 41 35 35 45 57 70 67 54 56 69 75 74 71 65 44 54 53 45 42 35 40 54 56 53 48 45 39 32
88 22 67 71 66 55 61 62 58 54 48 53 54 50 41 40 37 40 43 43 55 59 56 62 46 51 59 62 53 47 49 57 59 53 44 53 58 61 56 51 44 42 36
67 69 70 82 58 56 55 50 50 51 55 52 48 48 43 40 39 41 38 44 51 55 57 53 48 43 48 51 55 46 52 53 58 64 59 60 58 60 56 53 48 46 38
77 55 79 50 43 52 49 51 46 45 48 43 40 45 44 39 42 42 43 41 46 50 59 56 55 50 46 48 46 54 45 42 42 50 54 58 60 59 54 54 52 51 40
71 72 36 43 51 47 46 48 46 43 43 42 42 39 42 39 37 38 41 43 48 47 50 48 45 45 43 51 56 69 55 50 48 39 46 58 53 54 56 56 55 51 43
41 44 50 47 44 43 39 40 39 36 42 40 41 40 42 38 41 44 44 39 39 40 38 43 43 50 52 55 60 60 56 44 45 45 47 45 50 53 53 54 59 50 45
34 41 42 43 44 44 40 43 36 37 38 34 42 37 35 35 35 31 25 26 25 27 30 34 43 45 50 48 48 49 54 47 48 40 45 46 50 52 54 57 58 50 44
32 33 34 33 31 36 40 47 38 38 35 43 40 33 32 30 29 27 23 22 22 24 26 32 38 42 43 42 45 47 39 41 42 45 45 47 46 46 51 56 55 50 43
30 34 43 38 37 40 40 40 35 35 40 44 40 37 35 31 32 31 23 21 27 28 29 33 39 41 43 38 35 34 39 40 41 44 46 48 48 43 44 48 52 48 44
25 29 33 40 37 47 44 38 54 51 54 50 47 46 39 36 39 38 37 30 30 34 40 37 38 42 49 48 44 42 45 38 40 46 39 41 40 34 33 41 52 47 47
43 37 34 35 43 54 55 56 61 65 61 63 62 55 47 40 41 34 33 33 35 31 35 41 48 48 48 42 44 51 53 49 49 46 40 36 40 40 35 36 41 42 38
69 74 57 53 47 52 68 72 70 74 75 67 65 63 60 54 47 42 36 34 34 34 37 40 45 52 48 48 46 46 48 58 60 54 42 39 39 38 34 41 44 43 44
60 63 61 66 79 69 63 71 79 77 80 77 69 68 68 67 60 56 58 54 48 47 37 40 44 50 46 49 46 47 57 64 62 47 44 44 40 32 29 37 38 36 36
58 64 68 70 77 79 70 87 77 82 82 77 78 79 78 75 66 64 65 62 58 53 39 40 43 55 48 53 47 48 52 52 49 32 39 40 36 29 23 36 32 31 32
Wind_Direction_850mb
211 212 208 203 217 217 225 231 243 252 252 265 271 273 273 269 271 280 277 286 299 300 292 284 286 289 290 282 273 266 265 261 259 265 270 276 276 275 274 263 258 254 248
214 213 212 216 215 218 223 228 241 242 247 248 262 269 267 267 272 274 278 276 287 295 298 287 279 280 280 280 273 268 260 262 269 270 268 278 277 271 276 270 261 257 249
208 210 214 218 219 224 230 240 251 262 261 258 263 266 268 268 272 271 279 281 273 284 292 297 281 273 275 275 272 263 259 256 264 275 272 276 279 274 275 272 266 260 254
213 229 219 237 236 237 252 248 243 237 243 248 247 250 258 264 269 273 278 282 274 258 277 284 285 277 272 273 274 274 265 261 262 270 275 275 277 274 273 276 273 264 259
223 231 238 248 248 241 247 253 248 247 230 236 247 255 264 263 276 282 282 267 266 257 244 264 267 269 268 269 271 272 274 267 262 264 274 275 275 275 278 275 274 272 262
223 229 235 221 231 230 235 223 223 230 227 221 231 241 243 253 261 295 301 285 262 254 248 255 257 248 268 279 270 270 275 272 271 272 276 276 272 271 276 279 275 271 265
224 228 230 230 235 229 219 239 236 244 237 236 240 249 252 248 251 272 294 276 248 255 236 250 236 242 256 263 258 279 289 280 273 273 274 280 275 269 270 275 276 272 265
233 226 232 227 231 229 242 234 240 236 244 232 228 249 244 253 262 267 276 261 228 212 239 227 234 248 226 255 262 264 280 286 276 275 273 276 277 268 268 268 275 271 265
228 234 232 232 228 242 237 235 236 238 235 232 233 230 258 260 260 246 236 228 231 212 237 191 222 239 252 260 258 287 299 287 277 272 274 269 272 267 262 263 269 272 267
236 230 235 225 230 227 227 236 237 228 229 231 250 256 251 250 257 272 263 260 254 253 263 253 250 256 267 267 278 283 272 280 295 274 275 266 267 266 260 260 263 272 267
249 236 226 225 228 231 232 223 236 247 237 249 245 241 246 261 254 250 266 267 245 232 284 297 300 279 285 292 287 263 272 279 278 295 312 272 260 261 259 258 256 267 270
237 247 225 228 228 231 225 227 234 239 257 242 245 236 235 238 244 251 264 272 268 272 268 275 291 290 298 284 287 285 252 261 269 270 285 288 257 256 258 254 253 262 270
227 228 233 223 223 232 228 238 235 241 247 249 244 246 243 244 249 261 258 265 269 277 281 278 292 283 268 263 270 266 254 264 268 262 266 277 260 253 260 249 252 260 269
237 256 237 235 223 222 235 232 238 241 242 248 250 248 243 245 249 248 253 259 272 272 277 281 295 270 273 265 269 262 256 265 263 252 258 257 258 249 256 249 249 258 266
237 237 228 228 219 217 219 231 233 236 240 242 247 250 248 249 246 250 252 257 258 265 271 275 276 277 278 264 277 274 269 280 277 253 247 246 244 244 250 252 247 252 260
232 229 210 244 214 216 214 216 223 234 233 239 243 250 251 246 249 245 259 259 261 263 266 271 276 265 284 272 261 279 280 278 288 270 250 250 237 241 247 251 246 249 257
230 223 218 205 212 211 211 208 218 221 240 240 245 247 250 249 244 247 249 249 253 257 257 267 273 277 282 276 276 284 273 266 291 283 261 254 243 237 249 243 244 246 253
225 229 220 215 211 210 211 213 219 224 232 240 242 245 245 247 250 249 246 252 258 262 278 282 280 283 278 276 282 279 285 262 271 295 290 259 245 254 245 242 240 243 251
218 212 215 212 208 204 207 240 218 217 213 233 242 234 236 235 239 238 248 243 252 265 267 274 280 280 278 278 281 277 280 275 273 289 292 255 248 244 232 235 236 240 249
223 219 212 212 208 207 209 214 221 214 210 216 222 217 223 224 228 234 240 246 261 276 276 279 281 284 285 287 283 272 278 274 279 283 282 271 249 244 241 229 232 239 249
252 240 226 226 219 217 212 208 217 204 211 207 209 216 218 218 224 225 228 244 249 267 278 280 282 285 287 292 295 293 283 282 280 279 285 274 256 249 243 231 234 239 251
282 269 254 247 236 231 227 217 215 213 210 212 212 218 222 237 242 246 252 260 270 277 282 280 283 283 281 282 286 283 292 284 282 279 285 255 251 244 252 246 244 247 252
268 267 263 253 248 249 241 237 226 218 218 217 217 216 223 232 246 247 260 276 286 290 292 294 289 288 286 284 278 278 275 283 275 273 280 248 232 234 227 234 259 261 256
257 263 268 269 257 254 241 235 234 228 224 223 223 224 225 228 232 241 239 251 263 270 279 286 288 291 285 279 272 270 269 269 270 269 259 241 249 248 241 241 243 257 259
246 243 247 258 253 252 249 240 238 234 233 229 229 231 232 240 237 236 240 252 266 275 281 292 298 297 298 290 286 276 275 276 273 260 239 246 241 228 225 235 256 257 266
245 239 236 240 247 243 246 248 242 239 238 233 232 233 237 234 240 241 243 255 263 273 278 283 283 291 290 290 286 270 274 270 257 249 247 224 227 210 213 230 246 255 268